Regional Weather Roundup
Issued by NWS

Home | Current Version | Previous Version | Graphics & Text | Print | Product List | Glossary On
Versions: 1 2 3 4 5 6 7 8 9 10 11 12 13 14 15 16 17 18 19 20 21 22 23 24 25 26 27 28 29 30 31 32 33 34 35 36 37 38 39 40 41 42 43 44 45 46 47 48 49 50
000
ASUS45 KCYS 020110
RWRWY

WYOMING REGIONAL WEATHER ROUNDUP
NATIONAL WEATHER SERVICE CHEYENNE WY
700 PM MDT TUE SEP 01 2015

NOTE:  "FAIR" INDICATES FEW OR NO CLOUDS BELOW 12,000 FEET
WITH NO SIGNIFICANT WEATHER AND/OR OBSTRUCTIONS TO VISIBILITY.

WYZ001-020200-
YELLOWSTONE NATIONAL PARK

CITY           SKY/WX    TMP DP  RH WIND       PRES   REMARKS
LK YELLOWSTONE   N/A     67  25  20 VRB7      30.16S
W YELLOWSTONE  NOT AVBL

$$
WYZ002>013-054>058-071-098>099-020200-
NORTHERN WYOMING

CITY           SKY/WX    TMP DP  RH WIND       PRES   REMARKS
JACKSON        FAIR      73  37  27 SW5       30.05S
CODY           FAIR      82  30  15 W8        29.89S
GREYBULL       FAIR      90  33  13 SE3       29.77F
WORLAND        FAIR      89  31  12 S14       29.79F
SHERIDAN       FAIR      87  34  15 SE3       29.82S
BUFFALO        FAIR      82  29  14 E7        29.91S
GILLETTE       FAIR      81  40  23 E7        29.88S
HULETT         FAIR      82  37  20 E5        29.91S
NEWCASTLE        N/A     86  30  13 SE6       29.90S

$$
WYZ014>020-022>026-101>103-020200-
CENTRAL WYOMING

CITY           SKY/WX    TMP DP  RH WIND       PRES   REMARKS
BIG PINEY      FAIR      75  34  22 W9        30.12R
PINEDALE       FAIR      75  28  17 W9        30.12R
DUBOIS         FAIR      72  28  20 W8        30.10R
LANDER         FAIR      77  40  26 S30G40    29.96R
RIVERTON       FAIR      84  34  16 SW10      29.95S
CASPER         FAIR      81  37  20 S9        29.96S
DOUGLAS        FAIR      85  34  16 SW5       29.95S

$$
WYZ021-027>030-104>119-020200-
SOUTHERN WYOMING

CITY           SKY/WX    TMP DP  RH WIND       PRES   REMARKS
EVANSTON       MOCLDY    78  32  18 W15G22    30.13S
KEMMERER       FAIR     N/A N/A N/A W13       30.16R
FORT BRIDGER   MOCLDY    77  39  25 S10G16    30.16S
ROCK SPRINGS   FAIR      66  49  54 E9        30.13F
DIXON          CLOUDY    72  40  31 S14G22    30.20R
RAWLINS        FAIR      75  34  22 SW12      30.14R
SARATOGA       FAIR      68  37  32 S18G25    30.20S
LARAMIE        CLOUDY    68  38  33 W16G22    30.22R
CHEYENNE       FAIR      79  36  21 SW7       30.09S
TORRINGTON     FAIR      84  43  23 SE7       29.90S
PINE BLUFFS    FAIR      79  32  18 W3        30.01S

$$



USA.gov is the U.S. government's official web portal to all federal, state and local government web resources and services.